PROGRESS-MS 10

Last updated on Wed Jun 05 2019 00:02:07 GMT+0000 (Coordinated Universal Time)

1 43702U 18091A 19153.54200231 -.00002258 00000-0 -30105-4 0 9993 2 43702 51.6440 73.9800 0007568 5.8530 338.9083 15.51157944 30742
UTC large
Height (km)
Speed (km/s)
/
Latitude / Longitude
Inclination (degrees)
Orbital Period (minutes)
Azimuth
Elevation
Range (km)
Doppler Factor

Next 0 passes for location: London (51.5072 / 0.1276)

Sorry there are no passes over London.